星链-6193 (STARLINK-6193 )

导读

STARLINK-6193是美国太空探索技术公司 SpaceX 星链互联网卫星星座中的一颗卫星,于2023年6月12日发射升空。星链旨在为全球提供低延迟、高速率的卫星宽带互联网服务,该卫星入轨后,承担着为全球偏远地区、海洋航空器提供网络连接的任务,是星链星座扩容的重要组成部分。

Basic Information
目录编号:
56904
目录名称:
STARLINK-6193
国际标识:
2023-083AE
轨道中心:
EARTH
卫星名称:
星链-6193
卫星全名:
星链-6193 (STARLINK-6193 )
卫星状态:
在轨 (已飞行1180 天)
发射日期:
2023-06-12 UTC
国别 :
美国 (US)
星等 :
--
Orbit Information
数据来源 国际轨道数据 AOE轨道数据
星历时间 2026-09-03T18:52:37+0800
20小时前
查看轨道信息
2026-09-03T23:00:00+0800
16小时前
查看轨道信息
半长轴 6861.208km 6861.183km
偏心率 0.0001444 0.0002035
轨道倾角 43.005° 43.004°
近地点辐角 268.725° 240.049°
升交点赤经 146.863° 145.894°
平近点角 91.343° 345.868°
近地点 482.08km 481.649km
远地点 484.062km 484.443km
周期 94.267分钟 94.267分钟
每日圈数 15.275728 15.275813
Detailed Information
固有亮度:
5
最大亮度:
2.4
卫星平台:
Starlink v1.5
覆盖范围:
全球
运营商:
太空探索技术公司
运营商所在国:
美国
制造商(研发单位):
太空探索技术公司
制造商所在国:
美国
使用方式:
暂无
Satellite Introduction
星链(Starlink)计划是由太空探索技术公司(SpaceX)提出的一个巨型低轨卫星互联网星座项目,计划在2019年至2024年间在太空搭建由约1.2万颗卫星组成的“星链”网络,其中1584颗将部署在地球上空550千米处的近地轨道,并从2020年开始工作。该卫星仍在工作。
2D Orbit Map
3D Orbit Map
Orbit Altitude Analysis Chart
Orbit Inclination Analysis Chart
Orbit Comprehensive Analysis Chart
View Comprehensive Chart
Conjunction Data List
Event ID Objects TCA Miss Dist (km) Collision Risk Probability Collision Risk Index (CRI) Action
CDM_260904-013405-690406-712121
2026-09-04T
01:34:05+0000
0.570 km
远距离
1.01017E-4 高风险 0.75
CDM_260903-121305-690406-712121
2026-09-03T
12:13:46+0000
0.758 km
远距离
4.377825E-5 中风险 0.68
CDM_260905-012705-690406-646921
2026-09-05T
01:27:11+0000
0.899 km
远距离
2.880308E-5 中风险 0.64
CDM_260904-133805-690406-193021
2026-09-04T
13:38:09+0000
0.929 km
远距离
2.670183E-5 中风险 0.64
CDM_260903-103905-690406-712121
2026-09-03T
10:39:37+0000
0.967 km
远距离
1.952348E-5 中风险 0.61
CDM_260905-012405-690406-193021
2026-09-05T
01:24:19+0000
1.158 km
极远距离
1.246004E-5 中风险 0.57
CDM_260904-151505-690406-646921
2026-09-04T
15:15:11+0000
1.214 km
极远距离
1.020221E-5 中风险 0.55
CDM_260905-104705-690406-782921
2026-09-05T
10:47:20+0000
1.478 km
极远距离
5.498613E-6 低风险 0.5
CDM_260827-214005-690405-829823
SPIP (58298)
2026-08-27T
21:40:46+0000
1.640 km
极远距离
4.72052E-6 低风险 0.48
CDM_260905-020905-690406-782921
2026-09-05T
02:09:30+0000
1.752 km
极远距离
3.257243E-6 低风险 0.45